JZR311K OKKK-LTCG

Flight info

Callsign JZR311K
Flight time N/A
Altitude 38000
Route TASMI5F/33L TASMI L602 GADSI M860 NINVA UM860 RENGI DCT SONAD UT166 PIXAP
Aircraft A20N/M-SDE2E3FGHIRWXY/LB1

Departure

Time N/A
Airport Kuwait International Airport (OKKK)

Arrival

Time 2026-05-08 12:41
Airport Trabzon International Airport (LTCG)
Time Latitude Longitude Altitude Speed Heading
2026-05-08 11:09 32.92604 44.96703 37957 ft 447 kts 315°
2026-05-08 11:10 32.95227 44.94609 37945 ft 447 kts 315°
2026-05-08 11:10 33.00398 44.90464 37958 ft 447 kts 315°
2026-05-08 11:11 33.04691 44.87020 37955 ft 446 kts 316°
2026-05-08 11:11 33.09799 44.82918 37957 ft 447 kts 316°
2026-05-08 11:12 33.20145 44.75641 37963 ft 461 kts 329°
2026-05-08 11:13 33.26478 44.73502 37966 ft 476 kts 342°
2026-05-08 11:13 33.33097 44.72859 37972 ft 483 kts 351°
2026-05-08 11:14 33.39891 44.72716 37977 ft 482 kts 352°
2026-05-08 11:14 33.46661 44.72551 37976 ft 483 kts 352°
2026-05-08 11:15 33.53044 44.72368 37976 ft 481 kts 352°
2026-05-08 11:15 33.59928 44.72156 37977 ft 481 kts 351°
2026-05-08 11:16 33.66666 44.71946 37979 ft 479 kts 352°
2026-05-08 11:16 33.73386 44.71734 37980 ft 478 kts 352°
2026-05-08 11:17 33.80103 44.71520 37973 ft 479 kts 352°
2026-05-08 11:17 33.86790 44.71312 37977 ft 479 kts 352°
2026-05-08 11:18 33.93523 44.71098 37980 ft 478 kts 352°
2026-05-08 11:18 34.00206 44.70889 37983 ft 477 kts 352°
2026-05-08 11:19 34.06905 44.70674 37987 ft 476 kts 352°
2026-05-08 11:19 34.13332 44.70469 37983 ft 476 kts 352°
2026-05-08 11:20 34.19745 44.70265 37984 ft 476 kts 352°
2026-05-08 11:20 34.27217 44.70024 37991 ft 476 kts 352°
2026-05-08 11:21 34.33923 44.69812 37991 ft 474 kts 352°
2026-05-08 11:21 34.40566 44.69601 37993 ft 472 kts 352°
2026-05-08 11:22 34.47105 44.69057 37992 ft 466 kts 345°
2026-05-08 11:22 34.53485 44.67553 38000 ft 459 kts 337°
2026-05-08 11:23 34.59540 44.65137 37998 ft 450 kts 330°
2026-05-08 11:23 34.65360 44.62318 37995 ft 449 kts 330°
2026-05-08 11:24 34.71256 44.59445 38004 ft 450 kts 330°
2026-05-08 11:24 34.77087 44.56623 38001 ft 448 kts 330°
2026-05-08 11:25 34.82949 44.53788 38012 ft 448 kts 330°
2026-05-08 11:25 34.88665 44.51022 38017 ft 446 kts 330°
2026-05-08 11:26 34.94511 44.48190 38009 ft 446 kts 330°
2026-05-08 11:26 35.00320 44.45369 38014 ft 444 kts 330°
2026-05-08 11:27 35.06126 44.42543 38010 ft 444 kts 331°
2026-05-08 11:27 35.11861 44.39752 38015 ft 443 kts 330°
2026-05-08 11:28 35.17583 44.36956 38022 ft 444 kts 331°
2026-05-08 11:28 35.23332 44.34145 38029 ft 443 kts 330°
2026-05-08 11:29 35.29123 44.31308 38025 ft 443 kts 330°
2026-05-08 11:29 35.34833 44.28392 38036 ft 441 kts 329°
2026-05-08 11:30 35.40540 44.25445 38039 ft 441 kts 329°
2026-05-08 11:30 35.46211 44.22520 38034 ft 442 kts 329°
2026-05-08 11:31 35.51929 44.19567 38039 ft 441 kts 329°
2026-05-08 11:31 35.57632 44.16622 38044 ft 439 kts 329°
2026-05-08 11:32 35.63293 44.13691 38048 ft 439 kts 330°
2026-05-08 11:32 35.68943 44.10761 38043 ft 438 kts 330°
2026-05-08 11:33 35.74626 44.07808 38040 ft 438 kts 329°
2026-05-08 11:33 35.80269 44.04872 38050 ft 436 kts 329°
2026-05-08 11:34 35.85873 44.01958 38049 ft 437 kts 330°
2026-05-08 11:34 35.91538 43.99005 38050 ft 437 kts 330°
2026-05-08 11:35 35.97165 43.96069 38048 ft 436 kts 330°
2026-05-08 11:35 36.02799 43.93122 38047 ft 437 kts 330°
2026-05-08 11:36 36.08469 43.90149 38053 ft 437 kts 330°
2026-05-08 11:36 36.14032 43.87228 38049 ft 437 kts 330°
2026-05-08 11:37 36.19658 43.84270 38061 ft 438 kts 330°
2026-05-08 11:37 36.25279 43.81309 38063 ft 437 kts 330°
2026-05-08 11:38 36.30931 43.78354 38060 ft 437 kts 331°
2026-05-08 11:38 36.36599 43.75430 38057 ft 438 kts 331°
2026-05-08 11:39 36.42217 43.72523 38064 ft 438 kts 331°
2026-05-08 11:39 36.47872 43.69589 38062 ft 438 kts 331°
2026-05-08 11:40 36.53537 43.66643 38045 ft 437 kts 331°
2026-05-08 11:40 36.59166 43.63708 38051 ft 438 kts 331°
2026-05-08 11:41 36.64855 43.60738 38054 ft 438 kts 331°
2026-05-08 11:41 36.70522 43.57772 38063 ft 438 kts 331°
2026-05-08 11:42 36.76152 43.54805 38073 ft 437 kts 330°
2026-05-08 11:42 36.81719 43.51703 38078 ft 436 kts 330°
2026-05-08 11:43 36.87318 43.48561 38100 ft 436 kts 330°
2026-05-08 11:43 36.92902 43.45432 38106 ft 436 kts 330°
2026-05-08 11:44 36.98472 43.42307 38124 ft 436 kts 330°
2026-05-08 11:44 37.04070 43.39164 38136 ft 435 kts 330°
2026-05-08 11:45 37.09600 43.36054 38148 ft 435 kts 330°
2026-05-08 11:45 37.15136 43.32936 38170 ft 435 kts 329°
2026-05-08 11:46 37.20679 43.29806 38155 ft 434 kts 329°
2026-05-08 11:46 37.26198 43.26686 38158 ft 433 kts 330°
2026-05-08 11:47 37.31360 43.22992 38164 ft 424 kts 318°
2026-05-08 11:47 37.35756 43.18005 38175 ft 417 kts 306°
2026-05-08 11:48 37.38893 43.12598 38185 ft 410 kts 296°
2026-05-08 11:48 37.41240 43.07207 38189 ft 408 kts 294°
2026-05-08 11:49 37.43568 43.01702 38190 ft 407 kts 294°
2026-05-08 11:49 37.46690 42.94329 38196 ft 408 kts 294°
2026-05-08 11:50 37.49304 42.88163 38203 ft 407 kts 294°
2026-05-08 11:50 37.51969 42.81868 38209 ft 406 kts 294°
2026-05-08 11:51 37.54658 42.75498 38201 ft 406 kts 295°
2026-05-08 11:51 37.57325 42.69168 38195 ft 405 kts 295°
2026-05-08 11:52 37.59545 42.63903 38193 ft 405 kts 295°
2026-05-08 11:52 37.62313 42.57350 38207 ft 405 kts 295°
2026-05-08 11:53 37.64942 42.51102 38194 ft 405 kts 295°
2026-05-08 11:53 37.67546 42.44897 38198 ft 405 kts 295°
2026-05-08 11:54 37.70176 42.38619 38212 ft 404 kts 295°
2026-05-08 11:54 37.72775 42.32399 38192 ft 403 kts 295°
2026-05-08 11:55 37.75194 42.26596 38174 ft 403 kts 295°
2026-05-08 11:55 37.77964 42.19941 38183 ft 402 kts 295°
2026-05-08 11:56 37.80550 42.13711 38182 ft 402 kts 295°
2026-05-08 11:56 37.83126 42.07497 38189 ft 402 kts 295°
2026-05-08 11:57 37.85677 42.01324 38164 ft 402 kts 295°
2026-05-08 11:57 37.88270 41.95052 38161 ft 402 kts 296°
2026-05-08 11:58 37.91181 41.88934 38149 ft 404 kts 302°
2026-05-08 11:58 37.94613 41.83208 38157 ft 406 kts 307°
2026-05-08 11:59 38.00229 41.75105 38104 ft 406 kts 308°
2026-05-08 11:59 38.04002 41.69679 38121 ft 406 kts 308°
2026-05-08 12:00 38.07739 41.64299 38144 ft 406 kts 308°
2026-05-08 12:00 38.11464 41.58920 38146 ft 406 kts 308°
2026-05-08 12:01 38.15155 41.53585 38152 ft 406 kts 309°
2026-05-08 12:01 38.18924 41.48127 38157 ft 407 kts 309°
2026-05-08 12:02 38.22677 41.42682 38163 ft 408 kts 309°
2026-05-08 12:02 38.26425 41.37234 38165 ft 407 kts 309°
2026-05-08 12:03 38.29410 41.32887 38170 ft 407 kts 308°
2026-05-08 12:03 38.32681 41.28121 38159 ft 407 kts 308°
2026-05-08 12:04 38.37487 41.21096 38177 ft 407 kts 308°
2026-05-08 12:04 38.41207 41.15683 38190 ft 408 kts 310°
2026-05-08 12:05 38.45297 41.10593 38191 ft 410 kts 316°
2026-05-08 12:05 38.49821 41.06088 38176 ft 412 kts 322°
2026-05-08 12:06 38.54776 41.02190 38190 ft 415 kts 327°
2026-05-08 12:06 38.59891 40.98609 38212 ft 416 kts 328°
2026-05-08 12:07 38.64996 40.95046 38210 ft 415 kts 328°
2026-05-08 12:07 38.70087 40.91485 38207 ft 415 kts 328°
2026-05-08 12:08 38.75182 40.87917 38197 ft 415 kts 328°
2026-05-08 12:08 38.80290 40.84329 38206 ft 415 kts 328°
2026-05-08 12:09 38.85368 40.80757 38218 ft 414 kts 328°
2026-05-08 12:09 38.90448 40.77176 38206 ft 414 kts 328°
2026-05-08 12:10 38.95558 40.73567 38207 ft 415 kts 329°
2026-05-08 12:10 39.00661 40.69960 38225 ft 415 kts 329°
2026-05-08 12:11 39.05739 40.66365 38218 ft 414 kts 329°
2026-05-08 12:11 39.10814 40.62763 38209 ft 415 kts 329°
2026-05-08 12:12 39.15894 40.59154 38214 ft 415 kts 329°
2026-05-08 12:12 39.18418 40.57357 37992 ft 415 kts 329°
2026-05-08 12:12 39.20928 40.55570 37837 ft 412 kts 329°
2026-05-08 12:13 39.23424 40.53793 37691 ft 409 kts 329°
2026-05-08 12:13 39.25915 40.52016 37514 ft 407 kts 329°
2026-05-08 12:13 39.28410 40.50234 37357 ft 405 kts 329°
2026-05-08 12:13 39.30902 40.48454 37186 ft 403 kts 329°
2026-05-08 12:14 39.33366 40.46691 37022 ft 402 kts 329°
2026-05-08 12:14 39.35814 40.44937 36869 ft 400 kts 329°
2026-05-08 12:14 39.38256 40.43187 36712 ft 398 kts 329°
2026-05-08 12:14 39.40667 40.41461 36560 ft 396 kts 329°
2026-05-08 12:15 39.43099 40.39718 36398 ft 394 kts 330°
2026-05-08 12:15 39.45510 40.37986 36255 ft 392 kts 330°
2026-05-08 12:15 39.47891 40.36274 36077 ft 390 kts 330°
2026-05-08 12:15 39.50255 40.34574 35855 ft 385 kts 329°
2026-05-08 12:16 39.52592 40.32892 35548 ft 382 kts 329°
2026-05-08 12:16 39.54934 40.31204 35209 ft 379 kts 330°
2026-05-08 12:16 39.57209 40.29564 34899 ft 375 kts 330°
2026-05-08 12:16 39.59497 40.27913 34617 ft 371 kts 330°
2026-05-08 12:17 39.61758 40.26278 34336 ft 367 kts 330°
2026-05-08 12:17 39.63990 40.24666 33990 ft 364 kts 330°
2026-05-08 12:17 39.66187 40.23075 33598 ft 360 kts 331°
2026-05-08 12:17 39.68390 40.21481 33184 ft 357 kts 331°
2026-05-08 12:18 39.70540 40.19920 32635 ft 351 kts 332°
2026-05-08 12:18 39.72669 40.18374 31685 ft 354 kts 333°
2026-05-08 12:18 39.74817 40.16813 30817 ft 351 kts 333°
2026-05-08 12:18 39.76952 40.15260 30071 ft 344 kts 334°
2026-05-08 12:19 39.79043 40.13747 29365 ft 337 kts 334°
2026-05-08 12:19 39.81076 40.12276 28869 ft 334 kts 334°
2026-05-08 12:19 39.83122 40.10791 28407 ft 331 kts 334°
2026-05-08 12:19 39.85165 40.09305 27988 ft 329 kts 334°
2026-05-08 12:20 39.87169 40.07850 27559 ft 328 kts 334°
2026-05-08 12:20 39.89175 40.06391 27125 ft 327 kts 333°
2026-05-08 12:20 39.91154 40.04948 26696 ft 327 kts 334°
2026-05-08 12:20 39.93163 40.03483 26278 ft 326 kts 333°
2026-05-08 12:21 39.95153 40.02029 25878 ft 324 kts 333°
2026-05-08 12:21 39.97126 40.00588 25494 ft 322 kts 333°
2026-05-08 12:21 39.99092 39.99150 25104 ft 321 kts 333°
2026-05-08 12:21 40.01047 39.97720 24691 ft 320 kts 333°
2026-05-08 12:22 40.02980 39.96306 24289 ft 319 kts 333°
2026-05-08 12:22 40.04936 39.94874 23883 ft 318 kts 333°
2026-05-08 12:22 40.06886 39.93444 23483 ft 316 kts 333°
2026-05-08 12:22 40.08771 39.92061 23110 ft 315 kts 333°
2026-05-08 12:23 40.10709 39.90640 22714 ft 314 kts 333°
2026-05-08 12:23 40.12589 39.89261 22315 ft 313 kts 333°
2026-05-08 12:23 40.14504 39.87853 21915 ft 311 kts 332°
2026-05-08 12:23 40.16401 39.86457 21540 ft 308 kts 332°
2026-05-08 12:24 40.18266 39.85082 21166 ft 306 kts 332°
2026-05-08 12:24 40.20128 39.83712 20773 ft 306 kts 332°
2026-05-08 12:24 40.21964 39.82359 20365 ft 304 kts 332°
2026-05-08 12:24 40.23810 39.80998 19971 ft 302 kts 332°
2026-05-08 12:25 40.25628 39.79656 19591 ft 300 kts 332°
2026-05-08 12:25 40.27455 39.78306 19244 ft 298 kts 332°
2026-05-08 12:25 40.29271 39.76963 18886 ft 296 kts 332°
2026-05-08 12:25 40.31058 39.75642 18553 ft 294 kts 332°
2026-05-08 12:26 40.32858 39.74309 18181 ft 293 kts 332°
2026-05-08 12:26 40.34633 39.72995 17815 ft 291 kts 332°
2026-05-08 12:26 40.36411 39.71679 17409 ft 290 kts 332°
2026-05-08 12:26 40.38163 39.70380 17019 ft 289 kts 331°
2026-05-08 12:27 40.39951 39.69082 16624 ft 289 kts 336°
2026-05-08 12:27 40.41867 39.68253 16219 ft 287 kts 350°
2026-05-08 12:27 40.43860 39.68079 15826 ft 287 kts
2026-05-08 12:27 40.45869 39.68386 15438 ft 295 kts
2026-05-08 12:28 40.47923 39.68789 15043 ft 296 kts
2026-05-08 12:28 40.49912 39.69437 14651 ft 296 kts 18°
2026-05-08 12:28 40.51827 39.70451 14258 ft 295 kts 25°
2026-05-08 12:28 40.53644 39.71717 13874 ft 295 kts 28°
2026-05-08 12:29 40.55494 39.73072 13469 ft 301 kts 28°
2026-05-08 12:29 40.57353 39.74443 13073 ft 302 kts 28°
2026-05-08 12:29 40.59182 39.75786 12716 ft 301 kts 28°
2026-05-08 12:29 40.61014 39.77130 12560 ft 290 kts 28°
2026-05-08 12:30 40.62742 39.78395 12469 ft 277 kts 27°
2026-05-08 12:30 40.64416 39.79619 12372 ft 265 kts 27°
2026-05-08 12:30 40.66002 39.80777 12277 ft 254 kts 27°
2026-05-08 12:30 40.67489 39.82022 12232 ft 253 kts 37°
2026-05-08 12:31 40.68769 39.83639 11961 ft 258 kts 48°
2026-05-08 12:31 40.69899 39.85501 11410 ft 266 kts 51°
2026-05-08 12:31 40.71032 39.87469 11078 ft 272 kts 51°
2026-05-08 12:31 40.72188 39.89480 10916 ft 269 kts 51°
2026-05-08 12:32 40.73315 39.91431 10476 ft 264 kts 51°
2026-05-08 12:32 40.74439 39.93365 9871 ft 263 kts 51°
2026-05-08 12:32 40.75534 39.95242 9379 ft 258 kts 51°
2026-05-08 12:32 40.76637 39.97132 8892 ft 253 kts 51°
2026-05-08 12:33 40.77705 39.98959 8411 ft 248 kts 51°
2026-05-08 12:33 40.78749 40.00748 7965 ft 242 kts 51°
2026-05-08 12:33 40.79776 40.02509 7424 ft 241 kts 50°
2026-05-08 12:33 40.80799 40.04262 6943 ft 241 kts 51°
2026-05-08 12:34 40.81821 40.06015 6534 ft 242 kts 51°
2026-05-08 12:34 40.82886 40.07703 6165 ft 235 kts 38°
2026-05-08 12:34 40.84321 40.08663 5767 ft 224 kts 12°
2026-05-08 12:34 40.85825 40.09087 5409 ft 216 kts 10°
2026-05-08 12:35 40.87278 40.09472 5105 ft 210 kts 11°
2026-05-08 12:35 40.88715 40.09866 4857 ft 206 kts 10°
2026-05-08 12:35 40.90107 40.09908 4592 ft 202 kts 341°
2026-05-08 12:35 40.91265 40.08913 4403 ft 193 kts 309°
2026-05-08 12:36 40.91839 40.07349 4200 ft 190 kts 285°
2026-05-08 12:36 40.92123 40.05638 3973 ft 187 kts 282°
2026-05-08 12:36 40.92380 40.03945 3902 ft 188 kts 282°
2026-05-08 12:36 40.92639 40.02247 3794 ft 188 kts 282°
2026-05-08 12:37 40.92950 40.00550 3686 ft 188 kts 287°
2026-05-08 12:37 40.93367 39.98914 3666 ft 188 kts 292°
2026-05-08 12:37 40.93860 39.97284 3413 ft 188 kts 293°
2026-05-08 12:37 40.94363 39.95678 3099 ft 187 kts 293°
2026-05-08 12:38 40.94854 39.94098 2835 ft 186 kts 293°
2026-05-08 12:38 40.95330 39.92552 2483 ft 172 kts 292°
2026-05-08 12:38 40.95770 39.91115 2109 ft 164 kts 294°
2026-05-08 12:38 40.96188 39.89748 1776 ft 155 kts 294°
2026-05-08 12:39 40.96573 39.88491 1564 ft 141 kts 294°
2026-05-08 12:39 40.96948 39.87272 1368 ft 140 kts 294°
2026-05-08 12:39 40.97315 39.86081 1142 ft 140 kts 294°
2026-05-08 12:39 40.97684 39.84880 923 ft 139 kts 294°
2026-05-08 12:40 40.98053 39.83680 709 ft 140 kts 294°
2026-05-08 12:40 40.98418 39.82482 507 ft 140 kts 295°
2026-05-08 12:40 40.98789 39.81301 304 ft 139 kts 294°
2026-05-08 12:40 40.99159 39.80106 121 ft 136 kts 294°
2026-05-08 12:41 40.99450 39.79164 113 ft 70 kts 292°
2026-05-08 12:41 40.99556 39.78762 113 ft 30 kts 279°
2026-05-08 12:41 40.99559 39.78541 113 ft 19 kts 263°
2026-05-08 12:41 40.99541 39.78453 113 ft 5 kts 233°
2026-05-08 12:42 40.99504 39.78438 113 ft 3 kts 193°
2026-05-08 12:42 40.99485 39.78429 113 ft 2 kts 205°
2026-05-08 12:42 40.99472 39.78422 113 ft 2 kts 203°
2026-05-08 12:42 40.99460 39.78416 113 ft 0 kts 203°